Shon Levy

Olheiro-Chefe - Maccabi Tel Aviv
13 Jan 2028
Quinta-feira
Processo

Personalidade

Adaptabilidade (14) Ambição (9) Controvérsia (16) Lealdade (12) Pressão (13) Profissionalismo (6) Espírito Esportivo (7) Temperamento (18)

Perfil

Estilo de Treinamento Democrático
Licença Continental Pro
Determinação 9
Gestão de Pessoas 10
Motivação 8
Disciplina 13
Satisfação no Trabalho
100%
Fadiga
0%
Função Olheiro-Chefe
Salário 99.3K p/s
Contrato 14.03.2029

Desempenho

Comportamento Bom
Eficácia do Treinamento
50%
Desenvolvimento do Jogador
65%
Prevenção de Lesões
45%
Implementação Tática
55%

Eventos Recentes

Participou de uma reunião de recrutamento agora
Participou de uma reunião de recrutamento agora
Participou de uma reunião de recrutamento agora
Recomendou um alvo de transferência agora
Recomendou um alvo de transferência agora
Recomendou um alvo de transferência agora
Participou de uma reunião de recrutamento agora
Participou de uma reunião de recrutamento 7d atrás

Monitorando agora

267
Jogador Clube Status Habilidade Confiança Observado Última observação Último voto
Josh Nichols Tranmere Rovers Ativo 125 / 134 40% 1 11.01.2028 -
Malibongwe Khoza Mamelodi Sundowns Ativo 120 / 136 40% 1 11.01.2028 -
Miguel Vítor Hapoel Beer Sheva Perdido 111 / 121 62% 1 10.01.2028 Aprovar
Lucas Ventura Hapoel Beer Sheva Ativo 135 / 135 62% 1 04.01.2028 Aprovar
Ljupce Doriev Hapoel Tel Aviv Perdido 105 / 109 62% 1 01.01.2028 -
Taiwo Awoniyi Bournemouth Ativo 132 / 150 40% 1 01.01.2028 -
Lewis Morgan SuperSport United Ativo 146 / 125 40% 4 31.12.2027 -
Braian Aranda Agropecuario Argentino Ativo 104 / 114 40% 3 31.12.2027 -
Cristian Graciano Junior Ativo 107 / 121 40% 1 31.12.2027 -
Manuel Duarte Barracas Central Ativo 138 / 132 40% 4 30.12.2027 -
Francisco Facello Chacarita Juniors Ativo 102 / 108 40% 2 30.12.2027 -
Charlie Savage Reading Ativo 130 / 108 40% 1 30.12.2027 -
Simen Bolkan Nordli Rosenborg Ativo 112 / 123 40% 1 30.12.2027 -
Riqui Puig LA Galaxy Ativo 143 / 126 40% 4 29.12.2027 -
Gastón Lodico Racing Club Ativo 115 / 135 40% 3 29.12.2027 -
Juan Saborido Platense Ativo 135 / 120 40% 3 26.12.2027 -
Edwuin Cetré Estudiantes Ativo 120 / 135 40% 1 26.12.2027 -
Juan Infante Atlético Tucumán Ativo 122 / 121 40% 4 24.12.2027 -
Bernard Tekpetey Ludogorets Ativo 132 / 122 40% 1 24.12.2027 -
Aarón Molinas Defensa y Justicia Ativo 116 / 134 40% 2 20.12.2027 -
Marcelino Moreno Lanús Ativo 144 / 120 40% 3 20.12.2027 -
Antonio Galeano Remo Stars Ativo 118 / 128 40% 7 19.12.2027 -
Ángel Correa River Plate Ativo 137 / 148 40% 5 19.12.2027 -
Alexis Cuello San Lorenzo Ativo 118 / 134 40% 4 18.12.2027 -
Pavel Bucha FC Cincinnati Ativo 141 / 120 40% 2 18.12.2027 -
Gustavo Del Prete San Lorenzo Ativo 126 / 124 40% 1 17.12.2027 -
Emil Breivik Molde Ativo 138 / 145 40% 2 16.12.2027 -
Joaquín Gho Argentinos Juniors Ativo 133 / 136 40% 3 16.12.2027 -
Duvan Rangel La Equidad Ativo 138 / 138 40% 6 15.12.2027 -
Franco Ibarra Rosario Central Ativo 137 / 122 40% 2 15.12.2027 -
Daniel Herrera San Lorenzo Ativo 110 / 119 40% 2 15.12.2027 -
Jacques Ekomié Wrexham Ativo 131 / 131 40% 1 15.12.2027 -
Elías Báez Atlanta United FC Ativo 140 / 127 40% 3 11.12.2027 -
Facundo Altamira Godoy Cruz Ativo 117 / 122 40% 1 11.12.2027 -
Brandon Powell Wigan Athletic Ativo 102 / 119 40% 1 11.12.2027 -
César Ibáñez Huracán Ativo 119 / 126 40% 2 09.12.2027 -
Luciano Cosentino Wanderers Ativo 130 / 130 40% 3 07.12.2027 -
Alexander Warneryd Tromso Ativo 102 / 108 40% 1 07.12.2027 -
Imran Oulad Omar Dinamo Batumi Ativo 137 / 108 40% 3 04.12.2027 -
Emil Ceïde Rosenborg Ativo 142 / 113 40% 4 04.12.2027 -
Samuel Lucero Defensa y Justicia Ativo 110 / 123 40% 1 04.12.2027 -
Sondre Auklend Bodo/Glimt Ativo 144 / 136 40% 1 04.12.2027 -
Juan José Arias Real Salt Lake Ativo 110 / 132 40% 2 02.12.2027 -
Alan Lescano Argentinos Juniors Ativo 135 / 127 40% 4 01.12.2027 -
Petar Stanić Ludogorets Ativo 153 / 141 40% 4 28.11.2027 -
Alejo Cruz Juventud Ativo 130 / 117 40% 1 28.11.2027 -
Emanuel Coronel Rosario Central Ativo 118 / 139 40% 2 27.11.2027 -
Ulises Sánchez Gimnasia y Esgrima Ativo 111 / 131 40% 1 27.11.2027 -
Joseph Paintsil LA Galaxy Ativo 145 / 115 40% 1 26.11.2027 -
Lautaro Guzmán Lanús Ativo 131 / 120 40% 1 26.11.2027 -
Tiago Palacios Estudiantes Ativo 146 / 123 40% 3 25.11.2027 -
Håkon Evjen Molde Ativo 125 / 143 40% 2 23.11.2027 -
Alex Luna Instituto Ativo 140 / 116 40% 1 21.11.2027 -
Leandro Lozano Boca Juniors Ativo 131 / 112 40% 1 21.11.2027 -
Kevin Paredes River Plate Ativo 127 / 126 40% 2 20.11.2027 -
Sere Matsumura Shonan Bellmare Ativo 122 / 131 40% 2 20.11.2027 -
David Barbona Defensa y Justicia Ativo 110 / 131 40% 1 20.11.2027 -
César Pérez Defensa y Justicia Ativo 135 / 113 40% 1 20.11.2027 -
Terry Devlin Accrington Stanley Ativo 129 / 128 40% 1 19.11.2027 -
Vinicius Tobias Zorya Ativo 135 / 128 40% 1 18.11.2027 -
Sasha Marcich Lanús Ativo 139 / 110 40% 1 16.11.2027 -
Jefry Zapata Danubio Ativo 112 / 121 40% 3 15.11.2027 -
Sondre Sørli Sarpsborg 08 Ativo 136 / 124 40% 1 15.11.2027 -
Teruki Hara Nagoya Grampus Ativo 138 / 115 40% 2 14.11.2027 -
Carlos Palacios Boca Juniors Ativo 126 / 134 40% 2 14.11.2027 -
Isak Vådebu Tromso Ativo 116 / 98 40% 1 14.11.2027 -
Jens Hjertø-Dahl Hull City Ativo 123 / 118 40% 1 14.11.2027 -
Ignacio Perruzzi San Lorenzo Ativo 112 / 121 40% 1 10.11.2027 -
Marcus Holmgren Pedersen Valerenga Ativo 132 / 139 40% 1 05.11.2027 -
Gastón Togni Defensa y Justicia Ativo 122 / 119 40% 4 04.11.2027 -
Vicente Poggi Godoy Cruz Ativo 140 / 114 40% 3 03.11.2027 -
Tobías Leiva Estudiantes Ativo 110 / 110 40% 3 31.10.2027 -
Tomás Silva Platense Ativo 120 / 121 40% 2 25.10.2027 -
Santiago González Tigre Ativo 143 / 122 40% 1 22.10.2027 -
Gonzalo Abrego Godoy Cruz Ativo 115 / 134 40% 3 19.10.2027 -
Francisco González Metilli Belgrano Ativo 123 / 116 40% 2 18.10.2027 -
Mateo Mendoza Godoy Cruz Ativo 134 / 130 40% 1 18.10.2027 -
Tomás Porra Barracas Central Ativo 105 / 128 40% 2 16.10.2027 -
Sheyko Studer Independiente Rivadavia Ativo 119 / 130 40% 1 16.10.2027 -
Sebastián Medina Tigre Ativo 126 / 112 40% 3 14.10.2027 -
Diego García Defensor Sporting Ativo 108 / 109 40% 2 10.10.2027 -
Jhonatan Candia Barracas Central Ativo 111 / 112 40% 1 10.10.2027 -
Jarleysom KuPS Ativo 111 / 102 40% 1 10.10.2027 -
Valentín Moreno Tigre Ativo 135 / 111 40% 1 10.10.2027 -
Mauro Arambarri River Plate Ativo 168 / 163 40% 1 08.10.2027 -
Matko Miljevic Racing Club Ativo 116 / 122 40% 1 07.10.2027 -
Eryc Castillo Alianza Lima Ativo 128 / 106 40% 1 03.10.2027 -
Franco Nicola Liverpool Montevideo Ativo 110 / 134 40% 1 29.09.2027 -
Matías Lazo Melgar Ativo 113 / 116 40% 2 28.09.2027 -
Anton Logi Lúðvíksson Breidablik Ativo 106 / 126 40% 1 28.09.2027 -
Daniel Bassi Lillestrom Ativo 134 / 132 40% 1 24.09.2027 -
Renzo Tesuri Atlético Tucumán Ativo 111 / 114 40% 1 21.09.2027 -
Matías Zaracho Racing Club Ativo 136 / 124 40% 1 19.09.2027 -
Lucas Agazzi Defensor Sporting Ativo 112 / 111 40% 1 18.09.2027 -
Kevin Zenón Boca Juniors Ativo 118 / 139 40% 1 18.09.2027 -
Catriel Cabellos Sporting Cristal Ativo 128 / 115 40% 1 18.09.2027 -
Maizon Rodríguez Unión de Santa Fe Ativo 113 / 131 40% 1 18.09.2027 -
Bryan Ramírez FC Cincinnati Ativo 127 / 137 40% 1 15.09.2027 -
Luciano Boggio Nacional Ativo 110 / 114 40% 1 12.09.2027 -
Claudio Bravo Argentinos Juniors Ativo 108 / 118 40% 1 12.09.2027 -
Willy Kumado San Diego Football Club Ativo 111 / 118 40% 1 11.09.2027 -
Emiliano Álvarez Progreso Ativo 110 / 114 40% 1 08.09.2027 -
Manuel Guillén Argentinos Juniors Ativo 106 / 123 40% 1 08.09.2027 -
Billal Messaoudi JS Kabylie Ativo 112 / 121 40% 1 23.08.2027 -
Giuseppe Di Serio Spezia Ativo 117 / 130 40% 1 16.08.2027 -
Antoine Bernede Hellas Verona Ativo 136 / 142 40% 1 16.08.2027 -
Gabriel Strefezza Palermo Ativo 123 / 143 40% 1 10.08.2027 -
Milan van Ewijk Mansfield Town Ativo 130 / 135 40% 2 05.08.2027 -
Lautaro Vargas Leganés Ativo 136 / 138 40% 1 05.08.2027 -
Hwang Hee-Chan Wolverhampton Ativo 135 / 129 40% 5 04.08.2027 -
Caolan Boyd-Munce Wycombe Wanderers Ativo 134 / 128 40% 1 04.08.2027 -
Josh Edwards Charlton Athletic Ativo 133 / 120 40% 1 03.08.2027 -
Ben Chrisene Norwich City Ativo 122 / 124 40% 1 03.08.2027 -
Reda Jaadi Hapoel Kiryat Shmona Ativo 118 / 102 62% 1 19.07.2027 Aprovar
Darlin Yongwa Norwich City Ativo 115 / 121 40% 2 15.07.2027 -
Oswin Appollis Orlando Pirates Ativo 140 / 125 40% 1 15.07.2027 -
Cédric Don Maccabi Haifa Ativo 132 / 119 40% 6 14.07.2027 Observar
Tyler Goodrham Oxford United Ativo 113 / 132 40% 1 14.07.2027 -
Ross McCrorie Bristol City Ativo 139 / 135 40% 2 13.07.2027 -
Kellen Fisher Norwich City Ativo 138 / 133 40% 2 13.07.2027 -
Tyrese Campbell Sheffield United Ativo 118 / 141 40% 2 21.06.2027 -
Balázs Tóth Blackburn Rovers Ativo 144 / 125 40% 1 14.06.2027 -
Daniel Iversen Preston Ativo 121 / 126 40% 1 08.06.2027 -
Juan Mosquera Sheffield Wednesday Ativo 133 / 113 40% 2 07.06.2027 -
Arijanet Murić Sassuolo Ativo 142 / 132 40% 1 07.06.2027 -
Adam Randell Bristol City Ativo 134 / 133 40% 1 07.06.2027 -
George Wickens Lincoln City Ativo 104 / 110 40% 1 05.06.2027 -
Dean Henderson Crystal Palace Ativo 152 / 139 40% 1 05.06.2027 -
Bradley Mabunda SuperSport United Ativo 129 / 112 40% 1 02.06.2027 -
Jacob Widell Zetterström Derby County Ativo 136 / 133 40% 1 02.06.2027 -
Grégoire Coudert Burnley Ativo 118 / 126 40% 1 31.05.2027 -
Vladan Kovačević Norwich City Ativo 132 / 106 40% 1 31.05.2027 -
Tiago Freitas Benfica Ativo 107 / 112 40% 2 30.05.2027 -
Juan Giménez Celta Ativo 117 / 110 40% 2 30.05.2027 -
Azor Matusiwa Ipswich Town Ativo 143 / 123 40% 2 30.05.2027 -
Christ Inao Oulaï Fiorentina Ativo 132 / 141 40% 2 29.05.2027 -
Finley McAllister Grimsby Town Ativo 76 / 85 40% 1 29.05.2027 -
Bernardo Lima Porto Ativo 91 / 106 40% 3 28.05.2027 -
Davide Bartesaghi AC Milan Ativo 140 / 137 40% 2 28.05.2027 -
Paris Maghoma Norwich City Ativo 117 / 125 40% 1 26.05.2027 -
Leif Davis Ipswich Town Ativo 135 / 124 40% 1 24.05.2027 -
Stanley Mills Oxford United Ativo 118 / 122 40% 1 22.05.2027 -
Ryan Christie Bournemouth Ativo 129 / 149 40% 1 21.05.2027 -
Louie Barry Sheffield Wednesday Ativo 135 / 131 40% 1 19.05.2027 -
Jack Diamond Stockport County Ativo 124 / 125 40% 2 18.05.2027 -
Kenny Tete Fulham Ativo 131 / 153 40% 2 17.05.2027 -
Derry Murkin Derby County Ativo 136 / 125 40% 2 16.05.2027 -
Ryoya Morishita Blackburn Rovers Ativo 125 / 137 40% 2 16.05.2027 -
Tshepang Moremi Orlando Pirates Ativo 132 / 129 40% 3 15.05.2027 -
Harry Clarke Preston Ativo 141 / 139 40% 2 14.05.2027 -
Alessio Zerbin Frosinone Ativo 137 / 115 40% 2 12.05.2027 -
Tatsuhiro Sakamoto Coventry City Ativo 117 / 122 40% 2 10.05.2027 -
Richard Koné Queens Park Rangers Ativo 122 / 121 40% 1 09.05.2027 -
Adam Bakoune Ospitaletto Ativo 91 / 92 40% 1 09.05.2027 -
Eddy Kouadio Crotone Ativo 95 / 97 40% 2 07.05.2027 -
Ilias Chair Queens Park Rangers Ativo 121 / 133 40% 1 07.05.2027 -
Christos Mouzakitis Hull City Ativo 122 / 144 40% 1 07.05.2027 -
Leandro Martins Benfica Ativo 102 / 94 40% 2 06.05.2027 -
Marcelo Allende Mamelodi Sundowns Ativo 149 / 124 40% 2 02.05.2027 -
Pelle Mattsson Norwich City Ativo 122 / 137 40% 1 02.05.2027 -
Isaiah Jones Luton Town Ativo 137 / 122 40% 2 01.05.2027 -
Giorgi Chakvetadze Watford Ativo 116 / 122 40% 1 01.05.2027 -
Zaïd BafdilI Sporting CP Ativo 104 / 98 40% 1 01.05.2027 -
Matvey Kislyak CSKA Moscow Ativo 149 / 135 40% 3 29.04.2027 -
Jan Bürger Gillingham Ativo 125 / 121 40% 1 29.04.2027 -
Ernie Weaver AFC Wimbledon Ativo 98 / 120 40% 2 27.04.2027 -
Jack Currie Oxford United Ativo 137 / 108 40% 1 25.04.2027 -
Manuel Benson Maccabi Haifa Ativo 117 / 116 40% 2 23.04.2027 Mais informações
Kristoffer Lund Birmingham Ativo 127 / 126 40% 2 22.04.2027 -
Bertrand Traoré Sunderland Ativo 140 / 137 40% 1 19.04.2027 -
Ronald Swansea City Ativo 122 / 140 40% 3 18.04.2027 -
Nevot Ratner Maccabi Haifa Perdido 102 / 125 40% 1 17.04.2027 -
Koki Saito Queens Park Rangers Ativo 116 / 129 40% 1 10.04.2027 -
Mikey Johnston West Bromwich Albion Ativo 110 / 114 40% 1 09.04.2027 -
Josh Tymon Swansea City Ativo 114 / 130 40% 1 08.04.2027 -
Che Adams Torino Ativo 147 / 126 40% 2 06.04.2027 -
Edoardo Bove Watford Ativo 117 / 134 40% 1 03.04.2027 -
Paik Seung-Ho Birmingham Ativo 125 / 112 40% 1 02.04.2027 -
Williams Manyama SuperSport United Ativo 120 / 116 40% 2 31.03.2027 -
Eduardo Felicíssimo Sporting CP Ativo 119 / 118 40% 2 31.03.2027 -
Jason Knight Bristol City Ativo 113 / 119 40% 1 31.03.2027 -
Esequiel Barco Spartak Moscow Ativo 152 / 137 40% 2 28.03.2027 -
Noam Ben-Harush Maccabi Haifa Ativo 116 / 123 40% 2 28.03.2027 -
Luciano Gondou CSKA Moscow Ativo 124 / 127 40% 6 24.03.2027 -
Lior Kasa Hapoel Kiryat Shmona Ativo 98 / 116 40% 1 24.03.2027 -
Tristan Degreef Anderlecht Ativo 127 / 129 40% 1 24.03.2027 -
Gaetano Castrovilli Cesena Ativo 114 / 115 40% 3 23.03.2027 -
Batxi Krasnodar Ativo 140 / 121 40% 1 23.03.2027 -
Dmitry Pestryakov Dinamo Moscow Ativo 105 / 134 40% 2 22.03.2027 -
Emmanuel Boateng Hapoel Tel Aviv Ativo 126 / 124 40% 6 14.03.2027 -
Edwin Asamoah Berekum Chelsea Ativo 94 / 89 40% 2 13.03.2027 -
Siyanda Ndlovu Bloemfontein Celtic Ativo 122 / 126 40% 2 11.03.2027 -
Gonçalo Oliveira Benfica Ativo 106 / 111 40% 1 11.03.2027 -
Finn Jeltsch VfB Stuttgart Ativo 121 / 136 40% 1 08.03.2027 -
Matías Gómez Granada Ativo 109 / 131 40% 1 07.03.2027 -
Kazunari Kita Real Sociedad Ativo 94 / 115 40% 1 07.03.2027 -
Riley Owen Trento Ativo 114 / 98 40% 2 06.03.2027 -
Percy Jali Free State Stars Ativo 87 / 103 40% 1 06.03.2027 -
Patrick Maswanganyi Orlando Pirates Ativo 118 / 123 40% 2 25.02.2027 -
Bongani Modiba Black Aces Ativo 125 / 107 40% 1 21.02.2027 -
Everton Bala Levski Ativo 123 / 119 40% 4 20.02.2027 -
Reda Khadra Qarabag Ativo 117 / 128 40% 1 20.02.2027 -
Jelle Bataille Maccabi Haifa Ativo 116 / 122 40% 2 19.02.2027 -
Anton Miranchuk Dinamo Moscow Ativo 135 / 130 40% 1 18.02.2027 -
Bruninho Maccabi Haifa Ativo 127 / 121 40% 1 18.02.2027 -
Christian Krasnodar Ativo 148 / 117 40% 1 17.02.2027 -
Marquinhos Spartak Moscow Ativo 123 / 124 40% 1 16.02.2027 -
Arthur Gomes Dinamo Moscow Ativo 110 / 134 40% 4 09.02.2027 -
Rhys Chadwick Leyton Orient Ativo 89 / 113 40% 1 07.02.2027 -
Mpho Khethang AS Police Ativo 82 / 85 40% 1 04.02.2027 -
Hlompho Lorch Ajax Cape Town Ativo 103 / 111 40% 1 03.02.2027 -
Francisco Álvarez Argentinos Juniors Ativo 131 / 133 40% 1 27.01.2027 -
Alexandr Chernikov Krasnodar Ativo 145 / 134 40% 1 20.01.2027 -
Guy Melamed Maccabi Haifa Ativo 106 / 112 55% 1 18.01.2027 -
Jordan Lotomba Bloemfontein Celtic Ativo 137 / 135 40% 1 18.01.2027 -
Manfred Ugalde Spartak Moscow Ativo 116 / 129 40% 4 30.12.2026 -
Nahuel Ulariaga Hapoel Beer Sheva Ativo 130 / 122 40% 2 29.12.2026 -
Ruben van Bommel Ferencvaros Ativo 129 / 134 40% 1 25.12.2026 -
Hamode Kanaan Hapoel Beer Sheva Ativo 118 / 115 40% 4 23.12.2026 Observar
Ali Youssef Apollon Ativo 128 / 110 40% 2 23.12.2026 -
Themba Ngcobo SuperSport United Ativo 112 / 114 40% 3 21.12.2026 -
Israel Reyes CSKA Moscow Ativo 126 / 125 40% 2 21.12.2026 -
Mariano Gómez Ferencvaros Ativo 109 / 135 40% 1 19.12.2026 -
Ethane Azoulay Maccabi Haifa Ativo 112 / 123 40% 1 19.12.2026 -
Egas Cacintura Spartak Moscow Ativo 121 / 120 40% 2 14.12.2026 -
Guy Mizrahi Hapoel Beer Sheva Ativo 119 / 118 40% 1 11.12.2026 -
Sidiki Chérif Coventry City Ativo 112 / 121 40% 5 09.12.2026 -
Luka Kurtovic NK Domzale Ativo 122 / 130 40% 5 07.12.2026 Observar
Rahim Ibrahim Slovan Bratislava Ativo 110 / 142 40% 1 05.12.2026 -
Mojmír Chytil NK Maribor Ativo 150 / 121 40% 4 27.11.2026 -
Samuel Kalu Botev Plovdiv Ativo 105 / 119 40% 1 27.11.2026 -
Brayan León Mamelodi Sundowns Ativo 127 / 110 40% 1 25.11.2026 -
Kein Sato FC Tokyo Ativo 116 / 138 40% 3 20.11.2026 -
Andreas Gruber DAC Dunajska Streda Ativo 135 / 132 40% 1 20.11.2026 -
Anderson Arroyo Rubin Ativo 115 / 127 40% 1 18.11.2026 -
James Eto'o CSKA Sofia Ativo 105 / 128 40% 1 15.11.2026 -
Álex Centelles Levski Ativo 121 / 116 40% 2 10.11.2026 -
Thalente Mbatha Orlando Pirates Ativo 118 / 131 40% 1 10.11.2026 -
Arsen Adamov Akhmat Grozny Ativo 127 / 105 40% 1 07.11.2026 -
Veldin Hodža Rubin Ativo 123 / 130 40% 1 07.11.2026 -
Peter Agba Maccabi Haifa Ativo 127 / 125 40% 1 05.11.2026 -
Juan Cáceres Dinamo Moscow Ativo 141 / 132 40% 1 05.11.2026 -
Andraž Šporar Slovan Bratislava Ativo 137 / 127 40% 3 02.11.2026 -
Facundo Miño Deportivo Riestra Ativo 125 / 132 40% 1 02.11.2026 -
Ivan Sergeev Dinamo Moscow Ativo 109 / 119 40% 1 30.10.2026 -
Mykola Kukharevych Slovan Bratislava Ativo 112 / 132 40% 3 29.10.2026 -
Denzel Jubitana Neftchi Ativo 109 / 123 40% 1 27.10.2026 -
Mirlind Daku Spartak Moscow Ativo 144 / 115 40% 2 25.10.2026 -
Florin Tănase Omonoia Ativo 133 / 111 40% 2 18.10.2026 -
Dmitry Vorobjov Krasnodar Ativo 110 / 114 40% 2 16.10.2026 -
Maksim Samorodov Akhmat Grozny Ativo 125 / 138 40% 1 13.10.2026 -
Sam Lammers PSV Ativo 136 / 133 40% 1 08.10.2026 -
Ammar Ramadan DAC Dunajska Streda Ativo 124 / 133 40% 2 04.10.2026 -
Gabriel Jesus Barcelona Ativo 163 / 148 40% 3 03.10.2026 -
Marcelo Torres Gimnasia La Plata Ativo 112 / 102 40% 1 01.10.2026 -
Yarden Shua Beitar Jerusalem Ativo 115 / 128 40% 2 20.09.2026 -
Leandro Godoy CSKA Sofia Ativo 103 / 136 40% 2 19.09.2026 -
Kristian Eriksen Molde Ativo 107 / 116 40% 1 19.09.2026 -
Juan Manuel Boselli Krasnodar Ativo 105 / 129 40% 1 18.09.2026 -
Yaroslav Gladyshev Dinamo Moscow Ativo 107 / 114 40% 1 15.09.2026 -
Chuchu Ramírez Nacional Ativo 111 / 116 40% 1 13.09.2026 -
Ramiro Ruiz Rodríguez Atlético Tucumán Ativo 126 / 135 40% 1 12.09.2026 -
Lucas Souto Defensa y Justicia Ativo 111 / 116 40% 1 12.09.2026 -
Lee Buchanan Birmingham Ativo 122 / 131 40% 1 12.09.2026 -
Kai Andrews Coventry City Ativo 119 / 121 40% 1 28.08.2026 -
Tesfaldet Tekie Hammarby Ativo 139 / 117 40% 1 04.08.2026 -
Ludovit Reis Werder Bremen Ativo 140 / 125 40% 1 03.08.2026 -